Location: ??
(34.9170°N, 135.5016°E)
Time: 18:51:32
(UTC+00:00)

Cosmos 2082 Rocket - Pass Details

Date: 29 October 2020
Orbit: 833 x 854 km, 71.0° (Epoch: 01 December)

Event Time Altitude Azimuth Distance (km) Brightness Sun altitude
Exits shadow 18:57:23 78° 87° (E) 852 2.2 -29.1°
Drops below altitude 10° 19:02:51 10° 24° (NNE) 2,447 4.9 -28.0°
Sets 19:05:17 0° 23° (NNE) 3,387 5.7 -27.5°
